Wind_Speed
21 20 18 17 17 17 17 17 18 22 21 18 19 14 17 18 18 21 20 20 20 22 25 25 23 23 23 27 32 29 28 28 28 33 37 38 37 35
23 21 21 21 19 18 19 19 19 21 28 21 21 21 21 20 18 24 23 21 22 20 20 24 28 28 29 26 30 33 31 31 30 30 33 37 39 37
30 29 27 25 23 21 21 20 22 22 28 28 24 24 24 23 22 21 21 20 15 22 21 20 23 28 29 29 33 36 38 36 38 36 35 35 39 39
36 35 34 31 31 27 24 23 23 23 26 30 27 26 25 22 23 23 21 20 20 20 22 21 22 23 28 29 31 31 35 35 39 36 40 39 38 40
38 39 39 37 36 34 32 28 25 24 24 27 28 25 27 24 23 22 20 18 21 19 24 22 22 22 24 26 31 29 28 33 26 30 35 39 40 39
34 36 39 41 42 38 36 34 31 28 26 26 26 25 24 22 21 21 21 18 20 18 20 19 21 23 23 24 27 30 34 30 30 31 34 30 33 35
38 40 42 43 41 45 44 37 34 31 26 25 25 24 24 22 19 17 18 21 21 18 12 16 16 15 15 20 25 22 27 31 33 35 40 33 26 25
41 41 42 43 45 47 50 51 48 36 31 29 27 25 23 22 20 18 18 16 14 7 12 18 15 13 10 10 24 24 23 23 24 29 29 32 38 31
37 39 40 40 43 47 45 51 53 50 50 42 31 28 24 21 19 19 18 17 15 13 15 13 7 7 11 11 24 21 22 21 20 21 24 25 29 37
34 36 38 42 41 43 47 47 46 48 48 46 43 38 31 20 19 17 17 19 19 13 8 12 6 7 9 13 17 18 19 22 21 20 20 21 22 27
35 37 36 37 39 41 43 45 48 37 34 32 31 30 29 29 27 26 18 15 12 10 9 12 8 11 12 4 7 11 12 16 17 20 20 19 23 22
37 36 38 40 38 37 40 47 46 41 31 24 26 30 30 29 29 29 22 16 13 11 14 10 7 8 6 5 9 11 10 15 12 15 19 22 22 21
41 41 40 39 40 39 38 38 48 42 28 27 23 22 15 13 15 20 20 18 15 15 12 12 9 8 8 12 12 15 11 13 14 14 14 17 17 19
39 39 38 38 40 38 40 30 34 34 29 23 24 22 18 17 17 18 21 13 17 18 15 15 13 11 13 16 15 14 16 18 16 13 18 13 15 15
35 33 33 37 38 36 33 28 35 35 28 23 22 19 17 18 16 17 18 17 19 19 19 18 17 15 16 17 18 17 18 20 18 12 17 22 20 16
35 30 30 33 29 29 27 20 29 32 28 24 22 19 20 19 17 14 17 17 19 20 17 17 17 16 19 19 19 20 17 15 19 19 18 21 20 15
35 29 29 27 25 23 22 15 8 20 23 20 22 20 19 20 16 16 19 18 19 18 18 17 16 17 18 18 21 21 22 21 20 21 18 21 20 19
25 26 24 22 21 18 17 14 8 8 12 17 19 19 19 16 19 20 19 18 19 19 19 17 17 19 22 26 24 28 29 24 23 21 18 23 25 22
22 23 21 19 17 15 16 15 13 10 9 12 16 15 18 20 21 21 22 21 21 19 20 21 22 21 21 26 23 21 23 24 23 25 22 21 27 28
23 21 20 20 18 17 15 13 11 10 10 10 12 15 16 17 18 20 20 20 20 19 19 18 20 20 22 25 25 23 23 24 25 26 28 30 29 29
22 22 21 18 15 14 13 15 15 15 15 17 18 17 17 17 19 21 22 23 23 22 22 22 20 21 24 28 31 32 33 30 29 30 31 30 31 32
23 21 20 19 19 18 18 18 18 16 16 15 15 16 17 19 22 24 24 26 26 26 27 28 27 27 28 30 33 34 33 31 29 29 28 29 30 34
22 23 24 21 20 20 19 18 16 18 17 17 19 20 20 22 21 21 23 24 24 25 26 27 27 28 30 31 32 32 31 33 35 33 32 30 30 31
Wind_Direction
302 301 296 294 292 291 290 292 294 298 295 295 298 294 301 308 310 306 307 303 299 289 283 281 269 268 270 267 264 267 269 271 272 259 257 253 252 250
286 284 282 286 286 285 284 285 285 285 288 288 286 286 293 295 301 294 300 307 302 296 288 279 278 275 271 267 263 260 265 267 268 271 264 256 254 254
283 281 280 279 278 279 280 279 279 279 281 285 284 285 283 285 292 290 295 301 297 295 294 291 281 279 278 273 267 264 266 277 271 267 267 264 257 252
282 280 278 278 276 273 274 273 273 272 275 281 283 284 285 285 282 287 290 283 284 291 291 292 288 282 275 279 280 275 271 269 276 267 265 262 260 257
281 277 275 274 272 269 267 265 266 269 269 273 278 280 281 283 282 280 282 283 280 282 291 285 283 285 282 275 269 273 272 271 272 269 269 261 258 258
282 280 278 273 269 267 265 265 264 261 264 265 271 276 279 283 276 275 279 273 279 278 278 287 280 280 280 281 279 272 268 267 274 273 269 278 262 258
283 280 281 278 278 268 261 259 261 258 255 260 265 269 274 280 279 278 277 281 282 283 282 256 273 274 285 285 277 275 273 272 270 275 270 273 284 276
292 288 284 280 276 272 264 259 257 250 254 251 256 259 264 268 273 273 276 285 295 259 271 273 275 271 265 267 268 276 278 280 275 272 272 272 268 276
294 294 291 287 282 275 273 257 258 257 252 247 247 248 253 256 262 264 268 273 271 271 283 293 280 279 246 272 275 269 272 277 278 278 276 272 270 262
300 297 294 290 283 280 278 265 247 251 246 246 248 251 250 251 254 257 256 257 265 277 279 285 273 278 282 281 279 275 271 273 278 275 274 281 280 271
303 300 300 299 293 282 276 278 245 236 243 247 253 250 246 238 241 246 253 258 272 274 264 265 280 289 295 301 281 294 300 290 296 292 285 280 275 277
301 302 301 305 306 297 282 271 253 230 220 226 238 251 249 239 248 249 245 240 249 268 252 249 266 305 320 283 235 302 307 307 310 296 286 282 285 279
305 303 306 307 307 306 290 275 249 229 226 215 223 236 240 251 261 255 257 232 236 248 256 265 266 272 278 289 298 306 310 311 317 320 318 294 285 282
308 301 302 309 310 307 299 280 239 211 211 205 215 228 231 232 233 235 256 247 237 245 244 260 264 269 276 284 291 298 303 307 311 316 301 318 302 298
311 302 302 309 314 312 306 269 254 229 210 214 221 226 230 232 233 234 235 237 244 247 252 253 253 261 264 273 284 291 302 305 305 300 314 303 308 313
320 315 303 313 316 322 322 293 259 225 214 211 218 227 225 230 231 228 242 247 249 255 252 250 251 254 260 264 272 281 285 286 291 303 299 300 308 308
316 312 314 315 321 326 323 321 305 238 229 230 236 235 228 228 224 230 240 244 251 256 259 258 256 257 259 263 269 274 278 276 278 279 291 297 298 298
311 310 309 312 319 331 330 333 301 257 252 244 240 242 241 244 247 246 244 246 253 255 256 256 256 256 257 257 253 264 269 272 274 282 280 286 295 302
309 311 313 318 320 321 322 325 321 299 272 254 250 241 243 246 247 246 242 247 255 255 260 255 249 250 261 263 269 267 270 270 274 275 278 282 286 289
309 308 308 312 313 314 312 308 299 288 294 287 269 265 260 257 255 253 253 252 255 258 260 257 253 253 256 263 271 269 258 261 260 268 272 283 285 288
308 308 309 309 309 308 303 297 292 287 279 272 266 260 257 257 256 252 250 251 252 255 255 254 254 255 260 262 266 267 267 268 267 272 280 279 282 287
304 304 307 301 301 301 300 294 293 289 286 283 281 276 268 263 259 258 257 257 256 254 256 258 260 257 259 263 270 272 274 276 275 277 273 271 275 281
306 301 298 295 296 293 292 291 286 281 279 276 271 267 266 265 262 259 258 260 259 259 260 263 264 265 266 264 266 273 272 272 278 280 278 275 274 275
Height
1565 1562 1560 1558 1556 1553 1551 1548 1546 1540 1537 1536 1535 1534 1531 1527 1524 1522 1521 1518 1516 1516 1516 1516 1517 1518 1518 1519 1522 1523 1524 1524 1525 1527 1529 1531 1533 1535
1561 1558 1555 1553 1551 1549 1546 1544 1542 1538 1531 1532 1531 1529 1527 1524 1522 1518 1516 1514 1511 1510 1510 1510 1510 1511 1511 1511 1514 1515 1516 1517 1518 1519 1520 1522 1524 1526
1555 1553 1550 1547 1544 1542 1541 1539 1536 1534 1528 1525 1524 1522 1521 1519 1517 1514 1511 1510 1510 1505 1505 1504 1504 1503 1503 1505 1505 1505 1506 1508 1509 1511 1513 1514 1515 1517
1548 1546 1543 1542 1539 1536 1533 1531 1529 1528 1525 1519 1517 1515 1513 1513 1511 1508 1506 1505 1503 1500 1499 1499 1497 1497 1496 1497 1496 1496 1497 1498 1500 1500 1504 1506 1506 1508
1539 1536 1534 1533 1530 1529 1527 1524 1522 1520 1518 1514 1510 1510 1507 1506 1504 1503 1501 1499 1497 1495 1492 1493 1492 1491 1490 1490 1489 1490 1490 1491 1490 1491 1495 1498 1498 1499
1528 1525 1523 1521 1519 1518 1517 1516 1515 1511 1509 1507 1504 1503 1501 1500 1499 1498 1495 1494 1490 1490 1488 1486 1485 1485 1484 1482 1481 1483 1483 1484 1486 1483 1487 1488 1489 1489
1514 1512 1511 1509 1508 1507 1506 1506 1506 1503 1500 1498 1497 1496 1495 1494 1493 1492 1488 1486 1483 1483 1482 1482 1480 1479 1480 1477 1473 1475 1474 1474 1475 1476 1479 1479 1481 1481
1505 1502 1499 1497 1494 1493 1492 1491 1494 1494 1492 1490 1488 1488 1488 1488 1488 1486 1483 1481 1480 1479 1476 1475 1473 1474 1476 1475 1468 1467 1468 1468 1468 1468 1468 1468 1471 1474
1498 1493 1488 1486 1483 1480 1477 1475 1476 1478 1478 1481 1478 1479 1480 1480 1480 1479 1478 1476 1474 1474 1471 1468 1467 1468 1469 1468 1462 1462 1461 1461 1462 1460 1460 1462 1463 1462
1490 1484 1479 1473 1470 1469 1466 1463 1454 1459 1462 1465 1465 1466 1468 1471 1472 1472 1471 1468 1466 1465 1466 1462 1463 1463 1464 1461 1458 1457 1457 1456 1456 1456 1454 1455 1455 1457
1481 1476 1471 1465 1460 1457 1454 1450 1444 1441 1447 1450 1456 1457 1455 1458 1462 1463 1464 1463 1462 1463 1463 1462 1460 1460 1458 1456 1456 1454 1453 1451 1451 1450 1450 1450 1451 1452
1473 1467 1461 1456 1450 1445 1440 1437 1434 1434 1435 1440 1444 1449 1449 1448 1453 1455 1457 1458 1459 1460 1459 1458 1456 1455 1454 1454 1454 1451 1449 1449 1448 1447 1445 1443 1444 1445
1463 1457 1451 1446 1440 1434 1427 1424 1422 1426 1428 1428 1437 1442 1442 1440 1444 1447 1449 1450 1454 1456 1457 1454 1452 1452 1452 1451 1449 1448 1446 1445 1444 1444 1443 1440 1439 1439
1455 1449 1443 1438 1431 1423 1415 1411 1412 1411 1415 1421 1429 1434 1435 1437 1440 1443 1443 1444 1448 1450 1452 1450 1449 1448 1448 1446 1445 1444 1443 1442 1441 1441 1438 1437 1435 1435
1448 1441 1436 1431 1423 1415 1406 1402 1405 1407 1410 1416 1421 1426 1429 1431 1435 1438 1440 1441 1443 1443 1444 1444 1444 1443 1443 1441 1441 1441 1439 1439 1437 1436 1436 1433 1430 1429
1440 1434 1430 1425 1418 1410 1401 1398 1399 1402 1405 1410 1416 1420 1423 1426 1428 1432 1434 1435 1436 1436 1437 1439 1439 1438 1438 1437 1437 1436 1437 1437 1434 1434 1433 1431 1427 1426
1435 1430 1425 1421 1415 1409 1403 1399 1397 1399 1404 1409 1412 1415 1417 1420 1422 1425 1428 1429 1429 1429 1431 1432 1433 1432 1431 1432 1431 1431 1431 1430 1431 1429 1428 1426 1424 1422
1431 1426 1421 1418 1414 1410 1406 1403 1401 1402 1405 1407 1409 1411 1413 1415 1417 1420 1422 1423 1424 1425 1426 1427 1427 1426 1426 1425 1426 1425 1424 1424 1424 1424 1423 1420 1418 1418
1428 1423 1419 1416 1412 1410 1408 1406 1404 1404 1404 1405 1407 1408 1409 1411 1412 1414 1416 1418 1418 1419 1419 1419 1419 1420 1419 1417 1420 1421 1419 1419 1419 1417 1417 1415 1414 1413
1425 1421 1418 1414 1412 1409 1408 1406 1405 1404 1404 1404 1404 1405 1406 1406 1408 1408 1410 1411 1412 1413 1413 1414 1414 1414 1414 1413 1413 1413 1414 1413 1413 1411 1411 1409 1407 1406
1422 1418 1414 1411 1409 1407 1406 1404 1403 1402 1401 1401 1401 1401 1401 1402 1402 1403 1403 1404 1406 1406 1406 1407 1408 1409 1407 1406 1404 1404 1405 1406 1407 1404 1403 1402 1400 1399
1418 1414 1411 1408 1406 1404 1403 1401 1399 1398 1398 1397 1396 1395 1395 1396 1396 1397 1397 1398 1399 1400 1399 1400 1401 1401 1400 1399 1397 1397 1397 1397 1396 1396 1396 1395 1394 1389
1413 1410 1407 1404 1402 1400 1398 1397 1395 1394 1393 1392 1391 1391 1391 1390 1391 1391 1391 1391 1392 1392 1392 1392 1393 1394 1393 1393 1392 1390 1389 1389 1389 1387 1384 1385 1386 1383